• In Germany
  • List of Countries
  • For 7 days
  • Water Temperature
  • Satellite Maps
  • Weather Map
  • Weather Widgets
  • user-avatar
    Login

    Hourly Weather Abovyan

    Today, 18 January, Thursday

    Time Temperature Precipitation Wind Pressure Humidity
    00:00 -3°C° 0.1 mm 2 mps 667 mmHg 79%
    01:00 -3°C° 0.3 mm 2 mps 666 mmHg 80%
    02:00 -3°C° 0.3 mm 2 mps 666 mmHg 81%
    03:00 -2°C° 0 mm 2 mps 665 mmHg 85%
    04:00 -2°C° 0.4 mm 2 mps 665 mmHg 86%
    05:00 -2°C° 0.4 mm 2 mps 665 mmHg 87%
    06:00 -2°C° 0.4 mm 3 mps 665 mmHg 87%
    07:00 -2°C° 0.4 mm 3 mps 665 mmHg 87%
    08:00 -1°C° 0.4 mm 3 mps 665 mmHg 86%
    09:00 -1°C° 0.4 mm 3 mps 665 mmHg 86%
    10:00 -2°C° 0.7 mm 4 mps 664 mmHg 85%
    11:00 -1°C° 0.7 mm 4 mps 664 mmHg 85%
    12:00 0°C° 0.7 mm 4 mps 663 mmHg 85%
    13:00 0°C° 0.5 mm 4 mps 663 mmHg 83%
    14:00 0°C° 0.5 mm 4 mps 663 mmHg 82%
    15:00 +1°C° 0.5 mm 5 mps 662 mmHg 80%
    16:00 0°C° 0.2 mm 4 mps 662 mmHg 81%
    17:00 0°C° 0.2 mm 4 mps 662 mmHg 81%
    18:00 -1°C° 0.2 mm 4 mps 662 mmHg 81%
    19:00 -1°C° 0.2 mm 4 mps 662 mmHg 81%
    20:00 0°C° 0.2 mm 3 mps 662 mmHg 81%
    21:00 0°C° 0.2 mm 3 mps 662 mmHg 81%
    22:00 0°C° 0.1 mm 3 mps 662 mmHg 81%
    23:00 0°C° 0.1 mm 3 mps 662 mmHg 81%

    Tomorrow, 19 January, Friday

    Time Temperature Precipitation Wind Pressure Humidity
    00:00 -1°C° 0.1 mm 3 mps 662 mmHg 81%
    01:00 -1°C° 0 mm 3 mps 662 mmHg 81%
    02:00 -1°C° 0 mm 2 mps 662 mmHg 81%
    03:00 -1°C° 0 mm 2 mps 662 mmHg 81%
    04:00 -1°C° 0.1 mm 2 mps 662 mmHg 81%
    05:00 -1°C° 0.1 mm 2 mps 662 mmHg 81%
    06:00 -1°C° 0.1 mm 2 mps 663 mmHg 82%
    07:00 +1°C° 0.1 mm 2 mps 663 mmHg 81%
    08:00 +1°C° 0.1 mm 2 mps 663 mmHg 80%
    09:00 +2°C° 0.1 mm 2 mps 664 mmHg 79%
    10:00 +3°C° 0 mm 2 mps 663 mmHg 77%
    11:00 +4°C° 0 mm 2 mps 663 mmHg 75%
    12:00 +5°C° 0 mm 2 mps 663 mmHg 73%
    13:00 +6°C° 0 mm 2 mps 663 mmHg 72%
    14:00 +6°C° 0 mm 2 mps 663 mmHg 72%
    15:00 +6°C° 0 mm 2 mps 663 mmHg 72%
    16:00 +5°C° 0 mm 2 mps 664 mmHg 73%
    17:00 +4°C° 0 mm 2 mps 664 mmHg 74%
    18:00 +4°C° 0 mm 1 mps 665 mmHg 75%
    19:00 +3°C° 0 mm 1 mps 665 mmHg 74%
    20:00 +2°C° 0 mm 2 mps 665 mmHg 74%
    21:00 +2°C° 0 mm 2 mps 665 mmHg 73%
    22:00 +2°C° 0 mm 2 mps 665 mmHg 73%
    23:00 +1°C° 0 mm 2 mps 666 mmHg 73%

    Day after tomorrow, 20 January, Saturday

    Time Temperature Precipitation Wind Pressure Humidity
    00:00 +1°C° 0 mm 2 mps 666 mmHg 73%
    01:00 +1°C° 0 mm 2 mps 666 mmHg 74%
    02:00 +1°C° 0 mm 2 mps 667 mmHg 75%
    03:00 +1°C° 0 mm 2 mps 667 mmHg 75%
    04:00 +1°C° 0 mm 2 mps 667 mmHg 76%
    05:00 -1°C° 0 mm 2 mps 668 mmHg 77%
    06:00 -1°C° 0 mm 2 mps 668 mmHg 77%
    07:00 +1°C° 0 mm 2 mps 669 mmHg 76%
    08:00 +1°C° 0 mm 2 mps 669 mmHg 75%
    09:00 +2°C° 0 mm 2 mps 670 mmHg 73%
    10:00 +3°C° 0 mm 2 mps 670 mmHg 72%
    11:00 +4°C° 0 mm 2 mps 670 mmHg 70%
    12:00 +5°C° 0 mm 2 mps 670 mmHg 68%
    13:00 +6°C° 0 mm 1 mps 670 mmHg 68%
    14:00 +6°C° 0 mm 1 mps 670 mmHg 68%
    15:00 +6°C° 0 mm 1 mps 670 mmHg 68%
    16:00 +4°C° 0 mm 1 mps 670 mmHg 69%
    17:00 +3°C° 0 mm 1 mps 671 mmHg 70%
    18:00 +2°C° 0 mm 1 mps 671 mmHg 72%
    19:00 +1°C° 0 mm 1 mps 671 mmHg 71%
    20:00 +1°C° 0 mm 1 mps 672 mmHg 70%
    21:00 0°C° 0 mm 1 mps 672 mmHg 70%
    22:00 0°C° 0 mm 1 mps 672 mmHg 70%
    23:00 0°C° 0 mm 1 mps 672 mmHg 70%

    21 January, Sunday

    Time Temperature Precipitation Wind Pressure Humidity
    00:00 0°C° 0 mm 1 mps 672 mmHg 70%
    01:00 0°C° 0 mm 1 mps 673 mmHg 70%
    02:00 -1°C° 0 mm 1 mps 673 mmHg 70%
    03:00 -1°C° 0 mm 1 mps 673 mmHg 70%
    04:00 -1°C° 0 mm 1 mps 673 mmHg 70%
    05:00 -1°C° 0 mm 1 mps 673 mmHg 70%
    06:00 -1°C° 0 mm 1 mps 673 mmHg 70%
    07:00 0°C° 0 mm 1 mps 673 mmHg 68%
    08:00 +1°C° 0 mm 1 mps 673 mmHg 66%
    09:00 -1°C° 0 mm 2 mps 673 mmHg 65%
    10:00 +2°C° 0 mm 2 mps 673 mmHg 64%
    11:00 +3°C° 0 mm 2 mps 673 mmHg 62%
    12:00 +4°C° 0 mm 2 mps 672 mmHg 61%
    13:00 +4°C° 0 mm 2 mps 672 mmHg 61%
    14:00 +5°C° 0 mm 2 mps 672 mmHg 61%
    15:00 +5°C° 0 mm 2 mps 672 mmHg 61%
    16:00 +3°C° 0 mm 2 mps 672 mmHg 61%
    17:00 +2°C° 0 mm 2 mps 672 mmHg 61%
    18:00 +1°C° 0 mm 2 mps 672 mmHg 61%
    19:00 -1°C° 0 mm 2 mps 672 mmHg 60%
    20:00 -1°C° 0 mm 2 mps 672 mmHg 59%
    21:00 -1°C° 0 mm 2 mps 672 mmHg 59%
    22:00 -1°C° 0 mm 2 mps 672 mmHg 59%
    23:00 -1°C° 0 mm 2 mps 671 mmHg 59%

    22 January, Monday

    Time Temperature Precipitation Wind Pressure Humidity
    00:00 -1°C° 0 mm 2 mps 671 mmHg 59%
    01:00 -1°C° 0 mm 2 mps 671 mmHg 58%
    02:00 -1°C° 0 mm 2 mps 671 mmHg 58%
    03:00 -1°C° 0 mm 2 mps 671 mmHg 57%
    04:00 -1°C° 0 mm 2 mps 670 mmHg 57%
    05:00 -1°C° 0 mm 2 mps 670 mmHg 56%
    06:00 -1°C° 0 mm 2 mps 669 mmHg 56%
    07:00 +1°C° 0 mm 2 mps 669 mmHg 56%
    08:00 +2°C° 0 mm 2 mps 669 mmHg 56%
    09:00 +2°C° 0 mm 2 mps 669 mmHg 56%
    10:00 +4°C° 0 mm 2 mps 669 mmHg 55%
    11:00 +5°C° 0 mm 2 mps 668 mmHg 54%
    12:00 +6°C° 0 mm 2 mps 668 mmHg 53%
    13:00 +6°C° 0 mm 2 mps 668 mmHg 53%
    14:00 +6°C° 0 mm 2 mps 667 mmHg 53%
    15:00 +7°C° 0 mm 2 mps 667 mmHg 53%
    16:00 +5°C° 0 mm 2 mps 667 mmHg 51%
    17:00 +3°C° 0 mm 2 mps 667 mmHg 50%
    18:00 +2°C° 0 mm 2 mps 667 mmHg 49%
    19:00 +2°C° 0 mm 2 mps 667 mmHg 49%
    20:00 +1°C° 0 mm 2 mps 667 mmHg 49%
    21:00 +1°C° 0 mm 2 mps 667 mmHg 49%
    22:00 +1°C° 0 mm 2 mps 667 mmHg 50%
    23:00 -1°C° 0 mm 2 mps 667 mmHg 51%

    23 January, Tuesday

    Time Temperature Precipitation Wind Pressure Humidity
    00:00 -1°C° 0 mm 2 mps 667 mmHg 52%
    01:00 -1°C° 0 mm 2 mps 667 mmHg 53%
    02:00 -1°C° 0 mm 2 mps 667 mmHg 53%
    03:00 -2°C° 0 mm 2 mps 666 mmHg 54%
    04:00 -2°C° 0 mm 2 mps 666 mmHg 54%
    05:00 -2°C° 0 mm 2 mps 666 mmHg 54%
    06:00 0°C° 0 mm 1 mps 666 mmHg 55%
    07:00 -1°C° 0 mm 2 mps 666 mmHg 55%
    08:00 -1°C° 0 mm 2 mps 666 mmHg 56%
    09:00 +1°C° 0 mm 2 mps 667 mmHg 56%
    10:00 +2°C° 0 mm 2 mps 666 mmHg 56%
    11:00 +3°C° 0 mm 2 mps 666 mmHg 55%
    12:00 +5°C° 0 mm 2 mps 666 mmHg 54%
    13:00 +5°C° 0 mm 2 mps 666 mmHg 55%
    14:00 +5°C° 0 mm 2 mps 666 mmHg 56%
    15:00 +6°C° 0 mm 1 mps 666 mmHg 57%
    16:00 +5°C° 0 mm 1 mps 666 mmHg 58%
    17:00 +4°C° 0 mm 1 mps 666 mmHg 59%
    18:00 +2°C° 0 mm 1 mps 666 mmHg 60%
    19:00 +2°C° 0 mm 1 mps 666 mmHg 61%
    20:00 +2°C° 0 mm 1 mps 666 mmHg 63%
    21:00 +2°C° 0 mm 1 mps 667 mmHg 64%
    22:00 +1°C° 0 mm 1 mps 667 mmHg 65%
    23:00 +1°C° 0 mm 1 mps 666 mmHg 66%
    Show more